Hourly Data Report for August 16, 2020

SVARTEVAEG
NUNAVUT
Current Station Operator: ECCC - MSC

81°09'39.000" N
91°48'59.060" W
72.00 m
2403833
71872
NSG

Download Data

Hourly Data (August 2020)
Hourly Data Report for August 16, 2020
TIME Temp Definition
°C
Dew Point Definition
°C
Rel Hum Definition
%
Wind Dir Definition
10's deg

Wind Spd Definition
km/h
Visibility Definition
km
Stn Press Definition
kPa
Hmdx Definition


Wind Chill Definition


Weather Definition


00:00 -0.9 -1.1 99 36 23   100.43   -7 LegendNANA
01:00 -0.7 -0.9 99 35 22   100.43   -6 LegendNANA
02:00 -0.8 -1.0 99 35 19   100.44   -6 LegendNANA
03:00 -0.8 -1.1 98 35 19   100.44   -6 LegendNANA
04:00 -0.8 -1.0 98 35 19   100.43   -6 LegendNANA
05:00 -0.8 -1.1 98 35 15   100.43   -5 LegendNANA
06:00 -0.6 -0.9 98 34 12   100.41   -5 LegendNANA
07:00 -0.4 -0.6 98 35 12   100.39   -4 LegendNANA
08:00 -0.4 -0.8 98 35 17   100.40   -5 LegendNANA
09:00 -0.1 -0.4 98 35 18   100.40   -5 LegendNANA
10:00 0.2 -0.1 97 35 12   100.42     LegendNANA
11:00 1.4 0.6 95 35 5   100.44     LegendNANA
12:00 1.1 0.3 94 5 3   100.46     LegendNANA
13:00 1.9 0.2 89 21 2   100.48     LegendNANA
14:00 1.1 -0.1 92 9 3   100.52     LegendNANA
15:00 1.8 -1.3 80 10 4   100.56     LegendNANA
16:00 2.1 -0.4 83 14 6   100.58     LegendNANA
17:00 2.7 0.3 84 17 7   100.63     LegendNANA
18:00 2.7 1.1 89 21 12   100.65     LegendNANA
19:00 3.4 1.5 87 21 17   100.68     LegendNANA
20:00 3.6 0.9 82 19 11   100.72     LegendNANA
21:00 2.3 0.5 88 18 12   100.74     LegendNANA
22:00 1.7 -0.1 88 21 3   100.78     LegendNANA
23:00 1.9 -0.1 87 22 4   100.80     LegendNANA

Notes on Data Quality.

Legend

  • E = Estimated
  • M = Missing
  • NA = Not Available*
  • [empty] = Indicates an unobserved value
Date modified: